(270350) = 2001 YX4

Discovered at Kingsnake on 2001-12-23 by J. V. McClusky.

Orbit

Orbit type: Main Belt

Note: WebGL enabled browser required.

epoch2024-03-31.0
epoch JD2460400.5
perihelion date2022-06-01.99212
perihelion JD2459732.49212
argument of perihelion (°)27.77674
ascending node (°)62.26913
inclination (°)22.83009
eccentricity0.1043391
perihelion distance (AU)2.3020587
Tisserand w.r.t. Jupiter3.3
ΔV w.r.t. Earth (km/sec)12.0
semimajor axis (AU)2.5702347
mean anomaly (°)159.78142
mean daily motion (°/day)0.23919090
aphelion distance (AU)2.838
period (years)4.12
P-vector [x]0.03151490
P-vector [y]0.82996988
P-vector [z]0.55691723
Q-vector [x]-0.93864747
Q-vector [y]-0.16687907
Q-vector [z]0.30181502
absolute magnitude16.04
phase slope0.15
uncertainty0
referenceMPEC 2024-C115
observations used673
oppositions14
arc length (days)7834
first opposition used2001
last opposition used2023
residual rms (arc-secs)0.77
perturbers coarse indicatorM-v
perturbers precise indicator003Ek
first observation date used2001-12-19.0
last observation date used2023-06-01.0
computer nameMPCLINUX
JD of orbit computation2456700.261198
perihelion JD uncertainty (days)6.5775E-04
argument of perihelion uncertainty (°)1.7060E-04
ascending node uncertainty (°)1.3948E-05
inclination uncertainty (°)1.3622E-05
eccentricity uncertainty 3.6647E-07
perihelion distance uncertainty (AU)9.9381E-07
Minimum Orbit Intersection Distances (in AU)
for orbit epoch: 2460200.5, reference: E2024-CB5
Mercury1.99546
Venus1.59228
Earth1.32983
Mars0.78553
Jupiter2.50957
Saturn6.76946
Uranus16.0277
Neptune27.4588

Observations

682 total observations over interval: 2001 12 19.30888 – 2023 06 01.192809
These data are available for download (format description).

Date (UT) J2000 RA J2000 Dec Magn Location Ref
2001 12 19.30888 08 17 21.66 +45 40 47.7 19.0 R 699 – Lowell Observatory-LONEOS MPS 45432
2001 12 19.32774 08 17 20.96 +45 41 06.1   699 – Lowell Observatory-LONEOS MPS 45432
2001 12 19.34659 08 17 20.24 +45 41 23.2   699 – Lowell Observatory-LONEOS MPS 45432
2001 12 19.36546 08 17 19.58 +45 41 42.3   699 – Lowell Observatory-LONEOS MPS 45432
2001 12 23.37294 08 14 35.77 +46 44 47.8 19.5   704 – Lincoln Laboratory ETS, New Mexico MPS 47064
2001 12 23.37807 08 14 35.47 +46 44 51.6 19.6 R 446 – Kingsnake Observatory, Seguin MPS 45432
2001 12 23.38819 08 14 34.91 +46 45 01.8 19.8   704 – Lincoln Laboratory ETS, New Mexico MPS 47064
2001 12 23.40346 08 14 34.24 +46 45 16.3 19.2   704 – Lincoln Laboratory ETS, New Mexico MPS 47064
2001 12 23.40741 08 14 33.97 +46 45 18.0 19.6 R 446 – Kingsnake Observatory, Seguin MPS 45432
2001 12 23.41871 08 14 33.48 +46 45 30.5 19.6   704 – Lincoln Laboratory ETS, New Mexico MPS 47064
2001 12 23.43396 08 14 32.67 +46 45 44.5 19.5   704 – Lincoln Laboratory ETS, New Mexico MPS 47064
2001 12 24.38863 08 13 47.43 +47 00 26.8 18.8 R 446 – Kingsnake Observatory, Seguin MPS 45432
2001 12 24.41141 08 13 46.27 +47 00 48.3 19.1 R 446 – Kingsnake Observatory, Seguin MPS 45432
2002 01 09.30497 07 56 14.77 +50 33 29.2 19.6 R 446 – Kingsnake Observatory, Seguin MPS 47064
2002 01 09.35782 07 56 10.30 +50 34 02.2   446 – Kingsnake Observatory, Seguin MPS 47064
2002 01 13.43065 07 50 35.81 +51 14 38.8 19.9 R 446 – Kingsnake Observatory, Seguin MPS 47064
2002 01 19.20835 07 42 29.25 +52 00 06.1 19.2 R 699 – Lowell Observatory-LONEOS MPS 47064
2002 01 19.23512 07 42 26.98 +52 00 16.4   699 – Lowell Observatory-LONEOS MPS 47064
2002 01 19.26192 07 42 24.61 +52 00 27.7   699 – Lowell Observatory-LONEOS MPS 47064
2002 01 19.28884 07 42 22.27 +52 00 37.6   699 – Lowell Observatory-LONEOS MPS 47064
2002 01 25.24441 07 34 13.49 +52 31 47.0 18.9   704 – Lincoln Laboratory ETS, New Mexico MPS 47064
2002 01 25.25957 07 34 12.08 +52 31 50.3 19.1   704 – Lincoln Laboratory ETS, New Mexico MPS 47064
2002 01 25.27616 07 34 10.76 +52 31 54.0 19.3   704 – Lincoln Laboratory ETS, New Mexico MPS 47064
2002 02 09.33343 07 17 47.53 +52 45 30.8 19.7 R 446 – Kingsnake Observatory, Seguin MPS 49796
2002 02 09.36402 07 17 46.16 +52 45 27.1 19.6 R 446 – Kingsnake Observatory, Seguin MPS 49796
2002 02 21.19908 07 11 43.39 +52 05 08.6 19.7   704 – Lincoln Laboratory ETS, New Mexico MPS 52431
2002 02 21.21429 07 11 43.02 +52 05 03.7 19.8   704 – Lincoln Laboratory ETS, New Mexico MPS 52431
2002 02 21.22893 07 11 42.82 +52 04 58.8 20.1   704 – Lincoln Laboratory ETS, New Mexico MPS 52431
2005 11 26.35094 06 45 51.42 +37 43 20.7 19.2   704 – Lincoln Laboratory ETS, New Mexico MPS 244587
2005 11 26.36371 06 45 51.03 +37 43 33.7 19.1   704 – Lincoln Laboratory ETS, New Mexico MPS 244587
2005 11 26.37638 06 45 50.59 +37 43 44.5 19.4   704 – Lincoln Laboratory ETS, New Mexico MPS 244587
2005 12 22.28282 06 18 10.05 +43 42 52.4 19.0   704 – Lincoln Laboratory ETS, New Mexico MPS 244587
2005 12 22.29620 06 18 08.88 +43 43 01.2 19.2   704 – Lincoln Laboratory ETS, New Mexico MPS 244587
2005 12 22.30971 06 18 07.61 +43 43 09.6 19.1   704 – Lincoln Laboratory ETS, New Mexico MPS 244587
2005 12 22.32297 06 18 06.48 +43 43 17.8 19.2   704 – Lincoln Laboratory ETS, New Mexico MPS 244587
2005 12 22.33632 06 18 05.38 +43 43 27.7 19.8   704 – Lincoln Laboratory ETS, New Mexico MPS 244587
2007 04 15.00204 15 16 30.57 -03 04 22.6 19.7 R 152 – Moletai Astronomical Observatory MPS 208828
2007 04 15.02234 15 16 29.57 -03 04 23.6 19.4 R 152 – Moletai Astronomical Observatory MPS 208828
2007 04 15.04796 15 16 28.12 -03 04 24.6 19.2 R 152 – Moletai Astronomical Observatory MPS 208828
2007 04 26.35038 15 05 16.44 -03 18 07.5 19.6 V G96 – Mt. Lemmon Survey MPS 208828
2007 04 26.35609 15 05 16.04 -03 18 08.0 19.6 V G96 – Mt. Lemmon Survey MPS 208828
2007 04 26.36182 15 05 15.68 -03 18 08.6 19.5 V G96 – Mt. Lemmon Survey MPS 208828
2007 04 26.36754 15 05 15.28 -03 18 09.3 19.6 V G96 – Mt. Lemmon Survey MPS 208828
2007 05 15.27848 14 44 26.59 -04 09 23.6 19.7 V G96 – Mt. Lemmon Survey MPS 208828
2007 05 15.28398 14 44 26.26 -04 09 24.9 19.6 V G96 – Mt. Lemmon Survey MPS 208828
2007 05 15.28941 14 44 25.90 -04 09 26.7 19.4 V G96 – Mt. Lemmon Survey MPS 208828
2007 05 15.29492 14 44 25.54 -04 09 27.2 19.6 V G96 – Mt. Lemmon Survey MPS 208828
2007 05 17.29199 14 42 18.82 -04 17 14.6 20.3 V 703 – Catalina Sky Survey MPS 208828
2007 05 17.29683 14 42 18.57 -04 17 14.1 20.7 V 703 – Catalina Sky Survey MPS 208828
2007 05 17.30168 14 42 18.18 -04 17 15.6 20.6 V 703 – Catalina Sky Survey MPS 208828
2007 05 17.30649 14 42 17.92 -04 17 15.1 20.3 V 703 – Catalina Sky Survey MPS 208828
2009 11 09.49383 05 24 35.92 +26 53 17.4 18.6 V G96 – Mt. Lemmon Survey MPS 302108
2009 11 09.50142 05 24 35.60 +26 53 22.3 18.6 V G96 – Mt. Lemmon Survey MPS 302108
2009 11 09.50900 05 24 35.24 +26 53 27.7 18.5 V G96 – Mt. Lemmon Survey MPS 302108
2009 11 09.51659 05 24 34.92 +26 53 33.0 18.5 V G96 – Mt. Lemmon Survey MPS 302108
2009 11 11.33108 05 23 15.00 +27 14 32.7 19.6   704 – Lincoln Laboratory ETS, New Mexico MPS 302108
2009 11 11.34344 05 23 14.33 +27 14 41.1 20.0   704 – Lincoln Laboratory ETS, New Mexico MPS 302108
2009 11 11.35579 05 23 13.69 +27 14 50.7 20.2   704 – Lincoln Laboratory ETS, New Mexico MPS 302108
2009 11 11.36815 05 23 13.13 +27 14 58.6 19.9   704 – Lincoln Laboratory ETS, New Mexico MPS 302108
2009 11 17.31902 05 17 57.76 +28 24 23.2 19.1   704 – Lincoln Laboratory ETS, New Mexico MPS 303205
2009 11 17.34387 05 17 56.11 +28 24 40.6 19.5   704 – Lincoln Laboratory ETS, New Mexico MPS 303205
2009 11 17.35629 05 17 55.42 +28 24 48.3 19.8   704 – Lincoln Laboratory ETS, New Mexico MPS 303205
2009 11 17.36880 05 17 54.61 +28 24 57.9 19.7   704 – Lincoln Laboratory ETS, New Mexico MPS 303205
2009 11 22.31068 05 12 37.12 +29 22 16.2 18.8   704 – Lincoln Laboratory ETS, New Mexico MPS 304775
2009 11 22.32309 05 12 36.21 +29 22 25.1 19.3   704 – Lincoln Laboratory ETS, New Mexico MPS 304775
2009 11 22.33551 05 12 35.29 +29 22 34.1 19.4   704 – Lincoln Laboratory ETS, New Mexico MPS 304775
2009 11 22.34795 05 12 34.47 +29 22 41.8 19.4   704 – Lincoln Laboratory ETS, New Mexico MPS 304775
2009 11 22.36054 05 12 33.56 +29 22 50.6 19.2   704 – Lincoln Laboratory ETS, New Mexico MPS 304775
2009 11 23.35531 05 11 24.18 +29 34 14.6 19.0 V 691 – Steward Observatory, Kitt Peak-Spacewatch MPS 304775
2009 11 23.37346 05 11 22.84 +29 34 26.9 19.2 V 691 – Steward Observatory, Kitt Peak-Spacewatch MPS 304775
2009 11 23.39125 05 11 21.54 +29 34 39.1 19.1 V 691 – Steward Observatory, Kitt Peak-Spacewatch MPS 304775
2009 11 27.39105 05 06 26.71 +30 19 40.6 18.3 V G96 – Mt. Lemmon Survey MPS 304775
2009 11 27.39196 05 06 26.56 +30 19 40.5 18.3 V G96 – Mt. Lemmon Survey MPS 304775
2009 11 27.39609 05 06 26.31 +30 19 43.8 18.3 V G96 – Mt. Lemmon Survey MPS 304775
2009 11 27.39700 05 06 26.17 +30 19 44.0 18.2 V G96 – Mt. Lemmon Survey MPS 304775
2009 11 27.40118 05 06 25.88 +30 19 47.3 18.3 V G96 – Mt. Lemmon Survey MPS 304775
2009 11 27.40207 05 06 25.77 +30 19 47.3 18.2 V G96 – Mt. Lemmon Survey MPS 304775
2009 11 27.40630 05 06 25.48 +30 19 50.6 18.2 V G96 – Mt. Lemmon Survey MPS 304775
2009 11 27.40723 05 06 25.38 +30 19 50.7 18.2 V G96 – Mt. Lemmon Survey MPS 304775
2009 11 27.41137 05 06 25.09 +30 19 54.0 18.2 V G96 – Mt. Lemmon Survey MPS 304775
2009 11 27.41224 05 06 24.98 +30 19 53.7 18.3 V G96 – Mt. Lemmon Survey MPS 304775
2009 12 09.26241 04 50 13.67 +32 21 21.9 18.8   704 – Lincoln Laboratory ETS, New Mexico MPS 306596
2009 12 09.27516 04 50 12.63 +32 21 29.8 19.0   704 – Lincoln Laboratory ETS, New Mexico MPS 306596
2009 12 09.28787 04 50 11.50 +32 21 36.2 19.1   704 – Lincoln Laboratory ETS, New Mexico MPS 306596
2009 12 09.30058 04 50 10.43 +32 21 44.5 19.1   704 – Lincoln Laboratory ETS, New Mexico MPS 306596
2009 12 09.31338 04 50 09.23 +32 21 49.9 18.9   704 – Lincoln Laboratory ETS, New Mexico MPS 306596
2009 12 15.25122 04 41 49.27 +33 13 22.8 19.2   704 – Lincoln Laboratory ETS, New Mexico MPS 307222
2009 12 15.26398 04 41 48.13 +33 13 28.5 19.4   704 – Lincoln Laboratory ETS, New Mexico MPS 307222
